Location: Isle of Man Observatory
(54.1776°N, 4.6264°W)
Time: 14:17:00
(UTC+02:00)

ARIANE 6 FM1 Upper Stage - Pass Details

Date: 17 April 2026
Orbit: 526 x 601 km, 62.0° (Epoch: 19 May)

Event Time Altitude Azimuth Distance (km) Brightness Sun altitude
Rises 23:32:03 0° 283° (WNW) 2,704 7.1 -16.3°
Reaches altitude 10° 23:34:32 10° 296° (WNW) 1,801 6.3 -16.5°
Maximum altitude 23:38:01 27° 355° (N) 1,057 4.6 -16.8°
Drops below altitude 10° 23:41:27 10° 55° (NE) 1,782 5.2 -17.2°
Enters shadow 23:43:39 - 67° (ENE) 2,576 5.9 -17.4°
